• In Russia
  • List of Countries
  • For 7 days
  • Water Temperature
  • Satellite Maps
  • Weather Map
  • Weather Widgets
  • user-avatar
    Login

    Hourly Weather Igls

    Today, 28 February, Tuesday

    Time Temperature Precipitation Wind Pressure Humidity
    00:00 +1°C° 0 mm 3 mps 676 mmHg 93%
    01:00 0°C° 0 mm 4 mps 675 mmHg 92%
    02:00 0°C° 0 mm 4 mps 674 mmHg 92%
    03:00 +1°C° 0 mm 3 mps 674 mmHg 92%
    04:00 +1°C° 0 mm 3 mps 673 mmHg 92%
    05:00 +1°C° 0 mm 3 mps 673 mmHg 93%
    06:00 +1°C° 0 mm 3 mps 673 mmHg 94%
    07:00 +2°C° 0 mm 2 mps 673 mmHg 95%
    08:00 +3°C° 0.4 mm 2 mps 673 mmHg 95%
    09:00 +4°C° 0.4 mm 2 mps 673 mmHg 95%
    10:00 +4°C° 0.4 mm 2 mps 673 mmHg 95%
    11:00 +5°C° 0.9 mm 2 mps 673 mmHg 95%
    12:00 +5°C° 0.9 mm 2 mps 672 mmHg 95%
    13:00 +5°C° 0.9 mm 2 mps 672 mmHg 96%
    14:00 +5°C° 0.9 mm 2 mps 671 mmHg 96%
    15:00 +5°C° 0.9 mm 2 mps 670 mmHg 96%
    16:00 +5°C° 0.9 mm 2 mps 669 mmHg 96%
    17:00 +4°C° 1 mm 2 mps 669 mmHg 97%
    18:00 +4°C° 1 mm 2 mps 669 mmHg 97%
    19:00 +3°C° 1 mm 2 mps 669 mmHg 97%
    20:00 +3°C° 1.6 mm 2 mps 669 mmHg 97%
    21:00 +2°C° 1.6 mm 2 mps 670 mmHg 97%
    22:00 0°C° 1.6 mm 3 mps 670 mmHg 97%
    23:00 +1°C° 1.4 mm 2 mps 671 mmHg 97%

    Tomorrow, 1 March, Wednesday

    Time Temperature Precipitation Wind Pressure Humidity
    00:00 -1°C° 1.4 mm 2 mps 671 mmHg 97%
    01:00 -2°C° 1.4 mm 2 mps 672 mmHg 97%
    02:00 -2°C° 0.7 mm 2 mps 672 mmHg 97%
    03:00 -2°C° 0.7 mm 2 mps 673 mmHg 97%
    04:00 -2°C° 0.7 mm 2 mps 673 mmHg 97%
    05:00 -3°C° 0.1 mm 2 mps 674 mmHg 97%
    06:00 -3°C° 0.1 mm 2 mps 674 mmHg 96%
    07:00 -4°C° 0.1 mm 2 mps 674 mmHg 95%
    08:00 -3°C° 0.1 mm 2 mps 675 mmHg 94%
    09:00 -1°C° 0.1 mm 2 mps 676 mmHg 93%
    10:00 +1°C° 0.1 mm 2 mps 676 mmHg 92%
    11:00 +2°C° 0.1 mm 2 mps 677 mmHg 91%
    12:00 +2°C° 0.1 mm 2 mps 677 mmHg 90%
    13:00 +3°C° 0.1 mm 2 mps 678 mmHg 90%
    14:00 +3°C° 0.1 mm 2 mps 678 mmHg 90%
    15:00 +3°C° 0.1 mm 2 mps 678 mmHg 91%
    16:00 +3°C° 0.1 mm 2 mps 678 mmHg 92%
    17:00 +1°C° 0 mm 2 mps 678 mmHg 93%
    18:00 -3°C° 0 mm 2 mps 678 mmHg 93%
    19:00 -5°C° 0 mm 2 mps 678 mmHg 94%
    20:00 -4°C° 0 mm 2 mps 679 mmHg 93%
    21:00 -3°C° 0 mm 2 mps 679 mmHg 93%
    22:00 -2°C° 0 mm 2 mps 680 mmHg 92%
    23:00 -1°C° 0.1 mm 2 mps 680 mmHg 92%

    Day after tomorrow, 2 March, Thursday

    Time Temperature Precipitation Wind Pressure Humidity
    00:00 -1°C° 0.1 mm 3 mps 680 mmHg 91%
    01:00 -1°C° 0.1 mm 3 mps 680 mmHg 91%
    02:00 -1°C° 0.1 mm 3 mps 679 mmHg 91%
    03:00 -1°C° 0.1 mm 3 mps 679 mmHg 91%
    04:00 -1°C° 0.1 mm 3 mps 679 mmHg 92%
    05:00 -1°C° 0.1 mm 2 mps 679 mmHg 92%
    06:00 -1°C° 0.1 mm 2 mps 679 mmHg 92%
    07:00 -1°C° 0.1 mm 2 mps 679 mmHg 92%
    08:00 +1°C° 0.2 mm 2 mps 680 mmHg 93%
    09:00 +3°C° 0.2 mm 2 mps 680 mmHg 94%
    10:00 +5°C° 0.2 mm 2 mps 681 mmHg 95%
    11:00 +5°C° 0.3 mm 2 mps 681 mmHg 95%
    12:00 +7°C° 0.3 mm 1 mps 682 mmHg 95%
    13:00 +7°C° 0.3 mm 1 mps 682 mmHg 96%
    14:00 +7°C° 0.3 mm 1 mps 682 mmHg 96%
    15:00 +6°C° 0.3 mm 2 mps 683 mmHg 96%
    16:00 +5°C° 0.3 mm 2 mps 683 mmHg 96%
    17:00 +3°C° 0 mm 2 mps 683 mmHg 97%
    18:00 +2°C° 0 mm 1 mps 683 mmHg 97%
    19:00 0°C° 0 mm 1 mps 683 mmHg 97%
    20:00 -2°C° 0 mm 1 mps 682 mmHg 94%
    21:00 -3°C° 0 mm 1 mps 682 mmHg 91%
    22:00 -4°C° 0 mm 1 mps 682 mmHg 88%
    23:00 -5°C° 0 mm 2 mps 682 mmHg 89%

    3 March, Friday

    Time Temperature Precipitation Wind Pressure Humidity
    00:00 -4°C° 0 mm 2 mps 682 mmHg 90%
    01:00 -3°C° 0 mm 2 mps 682 mmHg 91%
    02:00 -2°C° 0 mm 2 mps 682 mmHg 92%
    03:00 -1°C° 0 mm 2 mps 682 mmHg 93%
    04:00 +1°C° 0 mm 2 mps 682 mmHg 94%
    05:00 +1°C° 0 mm 2 mps 681 mmHg 94%
    06:00 +1°C° 0 mm 2 mps 681 mmHg 94%
    07:00 +1°C° 0 mm 2 mps 681 mmHg 94%
    08:00 +3°C° 0 mm 2 mps 681 mmHg 95%
    09:00 +4°C° 0 mm 2 mps 681 mmHg 95%
    10:00 +5°C° 0 mm 3 mps 681 mmHg 95%
    11:00 +5°C° 0 mm 3 mps 680 mmHg 95%
    12:00 +7°C° 0 mm 3 mps 680 mmHg 94%
    13:00 +7°C° 0 mm 3 mps 679 mmHg 94%
    14:00 +7°C° 0 mm 3 mps 679 mmHg 95%
    15:00 +7°C° 0 mm 3 mps 678 mmHg 95%
    16:00 +7°C° 0 mm 3 mps 678 mmHg 96%
    17:00 +5°C° 0 mm 3 mps 677 mmHg 96%
    18:00 +4°C° 0 mm 3 mps 677 mmHg 96%
    19:00 +4°C° 0 mm 3 mps 677 mmHg 96%
    20:00 +4°C° 0 mm 3 mps 676 mmHg 95%
    21:00 +4°C° 0 mm 3 mps 676 mmHg 95%
    22:00 +3°C° 0 mm 3 mps 676 mmHg 95%
    23:00 +3°C° 0.1 mm 3 mps 676 mmHg 95%

    4 March, Saturday

    Time Temperature Precipitation Wind Pressure Humidity
    00:00 +3°C° 0.1 mm 3 mps 675 mmHg 95%
    01:00 +3°C° 0.1 mm 3 mps 675 mmHg 95%
    02:00 +3°C° 0.1 mm 3 mps 675 mmHg 95%
    03:00 +3°C° 0.1 mm 3 mps 674 mmHg 95%
    04:00 +3°C° 0.1 mm 3 mps 674 mmHg 95%
    05:00 +3°C° 0.1 mm 3 mps 674 mmHg 95%
    06:00 +3°C° 0.1 mm 3 mps 674 mmHg 95%
    07:00 +3°C° 0.1 mm 3 mps 674 mmHg 95%
    08:00 +4°C° 0.1 mm 3 mps 674 mmHg 94%
    09:00 +5°C° 0.1 mm 3 mps 674 mmHg 94%
    10:00 +7°C° 0.1 mm 3 mps 674 mmHg 93%
    11:00 +7°C° 0.5 mm 3 mps 674 mmHg 93%
    12:00 +7°C° 0.5 mm 2 mps 675 mmHg 92%
    13:00 +8°C° 0.5 mm 2 mps 675 mmHg 92%
    14:00 +7°C° 0.2 mm 2 mps 675 mmHg 93%
    15:00 +7°C° 0.2 mm 2 mps 675 mmHg 94%
    16:00 +7°C° 0.2 mm 2 mps 675 mmHg 94%
    17:00 +6°C° 0.1 mm 2 mps 675 mmHg 95%
    18:00 +5°C° 0.1 mm 2 mps 675 mmHg 96%
    19:00 +4°C° 0.1 mm 2 mps 676 mmHg 97%
    20:00 +4°C° 0.1 mm 2 mps 676 mmHg 97%
    21:00 +3°C° 0.1 mm 2 mps 676 mmHg 97%
    22:00 +3°C° 0.1 mm 2 mps 677 mmHg 97%
    23:00 +3°C° 0 mm 2 mps 677 mmHg 97%

    5 March, Sunday

    Time Temperature Precipitation Wind Pressure Humidity
    00:00 +2°C° 0 mm 2 mps 677 mmHg 97%
    01:00 +2°C° 0 mm 2 mps 676 mmHg 97%
    02:00 +1°C° 0 mm 2 mps 676 mmHg 97%
    03:00 +1°C° 0 mm 2 mps 676 mmHg 97%
    04:00 +1°C° 0 mm 2 mps 677 mmHg 96%
    05:00 +1°C° 0.1 mm 2 mps 677 mmHg 96%
    06:00 +1°C° 0.1 mm 2 mps 677 mmHg 96%
    07:00 +1°C° 0.1 mm 2 mps 677 mmHg 95%
    08:00 +2°C° 0.2 mm 2 mps 678 mmHg 94%
    09:00 +3°C° 0.2 mm 2 mps 678 mmHg 92%
    10:00 +4°C° 0.2 mm 2 mps 679 mmHg 91%
    11:00 +5°C° 0.3 mm 2 mps 679 mmHg 91%
    12:00 +5°C° 0.3 mm 2 mps 678 mmHg 91%
    13:00 +6°C° 0.3 mm 2 mps 678 mmHg 91%
    14:00 +6°C° 0.3 mm 2 mps 678 mmHg 91%
    15:00 +6°C° 0.3 mm 2 mps 678 mmHg 92%
    16:00 +7°C° 0.3 mm 1 mps 678 mmHg 92%
    17:00 +5°C° 0.2 mm 1 mps 678 mmHg 94%
    18:00 +4°C° 0.2 mm 1 mps 678 mmHg 95%
    19:00 +3°C° 0.2 mm 1 mps 678 mmHg 97%
    20:00 +3°C° 0.1 mm 1 mps 678 mmHg 97%
    21:00 +2°C° 0.1 mm 1 mps 678 mmHg 97%
    22:00 +2°C° 0.1 mm 1 mps 678 mmHg 97%
    23:00 +2°C° 0.1 mm 1 mps 678 mmHg 96%
    Show more